Location: Antichan
(42.9728°N, 0.6667°E)
Time: 09:59:26
(UTC+00:00)

IRIDIUM 106 - Pass Details

Date: 15 August 2020
Orbit: 776 x 779 km, 86.4° (Epoch: 18 September)

Event Time Altitude Azimuth Distance (km) Brightness Sun altitude
Rises 19:26:12 0° 173° (S) 3,247 7.2 -5.4°
Reaches altitude 10° 19:28:33 10° 171° (S) 2,324 6.5 -5.8°
Maximum altitude 19:33:42 66° 90° (E) 848 4.4 -6.7°
Drops below altitude 10° 19:38:53 10° 8° (N) 2,340 7.1 -7.5°
Sets 19:41:15 0° 6° (N) 3,272 7.9 -7.9°
